Regional Weather Roundup
Issued by NWS

Home | Current Version | Previous Version | Text Only | Print | Product List | Glossary Off
Versions: 1 2 3 4 5 6 7 8 9 10 11 12 13 14 15 16 17 18 19 20 21 22 23 24 25 26 27 28 29 30 31 32 33 34 35 36 37 38 39 40 41 42 43 44 45 46 47 48 49 50

000
ASUS43 KBIS 210702
RWRND

NORTH DAKOTA REGIONAL WEATHER ROUNDUP
NATIONAL WEATHER SERVICE BISMARCK ND
200 AM CDT FRI JUL 21 2017

NOTE: "FAIR" INDICATES FEW OR NO CLOUDS BELOW 12,000 FEET WITH NO
SIGNIFICANT WEATHER AND/OR OBSTRUCTIONS TO VISIBILITY.


NDZ001>003-009>011-017-210800-
NORTHWEST NORTH DAKOTA

CITY           SKY/WX    TMP DP  RH WIND       PRES   REMARKS
WILLISTON      CLOUDY    73  58  59 SE9       29.79S
MINOT          CLOUDY    69  63  81 SE6       29.81F
MINOT AFB      CLOUDY    67  62  85 S8        29.80F
$$

NDZ018>021-031>035-040>046-210800-
SOUTHWEST NORTH DAKOTA

CITY           SKY/WX    TMP DP  RH WIND       PRES   REMARKS
BISMARCK       CLOUDY    76  59  55 S15G26    29.83R
DICKINSON      CLOUDY    67  62  84 S9        29.80F
GARRISON         N/A     67  57  70 E8        29.84F
HETTINGER ARPT CLOUDY    68  60  75 SE13G23   29.86F
$$

NDZ004>008-012>016-024-026-027-054-210800-
NORTHEAST NORTH DAKOTA

CITY           SKY/WX    TMP DP  RH WIND       PRES   REMARKS
GRAND FORKS    MOCLDY    71  63  75 SE9       29.87R
GRND FRKS AFB  CLOUDY    69  62  80 SE5       29.87S
DEVILS LAKE    CLOUDY    77  67  71 SE8       29.85F
$$

NDZ022-023-025-028>030-036>039-047>053-210800-
SOUTHEAST NORTH DAKOTA

CITY           SKY/WX    TMP DP  RH WIND       PRES   REMARKS
FARGO          CLOUDY    77  68  73 S13       29.87F
JAMESTOWN      CLOUDY    71  65  81 E7        29.87F
$$




USA.gov is the U.S. government's official web portal to all federal, state and local government web resources and services.